Regional Weather Roundup
Issued by NWS Jackson, KY

Home | Current Version | Previous Version | Text Only | Print | Product List | Glossary Off
Versions: 1 2 3 4 5 6 7 8 9 10 11 12 13 14 15 16 17 18 19 20 21 22 23 24 25 26 27 28 29 30 31 32 33 34 35 36 37 38 39 40 41 42 43 44 45 46 47 48 49 50

000
ASUS43 KJKL 252019
RWRJKL

EAST KENTUCKY HOURLY WEATHER ROUNDUP
NATIONAL WEATHER SERVICE JACKSON KY
400 PM EDT FRI JUL 25 2014

NOTE: "FAIR" INDICATES FEW OR NO CLOUDS BELOW 12,000 FEET WITH
NO SIGNIFICANT WEATHER AND/OR OBSTRUCTIONS TO VISIBILITY.

* THESE REPORTS ARE NOT UNDER NWS QUALITY CONTROL AND MAY NOT
  REPORT WEATHER SUCH AS PRECIPITATION AND FOG.

KYZ079-080-083-085-087-088-110-112-115-119-120-252100
...EASTERN KENTUCKY...

CITY           SKY/WX    TMP DP  RH WIND       PRES   REMARKS
JACKSON        MOSUNNY   75  57  53 VRB3      30.07F
LONDON         MOSUNNY   77  57  50 VRB3      30.08S
SOMERSET*      MOSUNNY   77  55  47 W3        30.08F
MONTICELLO*    MOSUNNY   80  61  52 CALM      30.09S
WILLIAMSBURG*  MOSUNNY   75  63  64 CALM      30.08S
MIDDLESBORO*   PTSUNNY   78  64  62 NE6       30.06S
HARLAN APT*    PTCLDY    77  59  53 MISG      30.06F
BLACK MTN*       N/A     70  63  78 NW2         N/A
PIKEVILLE APT* MOSUNNY   75  59  57 CALM      30.08F
BIG SANDY*     MOCLDY    76  59  56 CALM      30.07S
MOREHEAD APT*    N/A     77  57  50 S8        30.08S
ASHLAND*       CLOUDY    79  55  44 NW5       30.02F
$$

KYZ035-036-041-042-044-050-067-078-099-252100
...CENTRAL KENTUCKY...

CITY           SKY/WX    TMP DP  RH WIND       PRES   REMARKS
MT STERLING*   SUNNY     79  59  50 NW3       30.07F
FLEMING/MASON* SUNNY     79  57  47 SW3       30.06S
DANVILLE*      PTSUNNY   77  59  53 E3        30.07F
RICHMOND*      PTSUNNY   79  55  44 N3        30.06S
LEXINGTON      MOSUNNY   82  55  39 VRB3      30.06S
FRANKFORT      MOSUNNY   80  55  42 W7        30.04F
$$

KYZ091>093-OHZ055-061-077-WVZ005-015-034-035-042-252100
...SOUTHERN OHIO/WEST VIRGINIA...

CITY           SKY/WX    TMP DP  RH WIND       PRES   REMARKS
COVINGTON      PTSUNNY   78  55  44 SW9       30.05S
COLUMBUS       PTSUNNY   79  53  40 S8        30.03F
DAYTON         PTSUNNY   75  54  47 W3        30.05F
WILMINGTON     MOSUNNY   77  56  48 S7        30.05F
HUNTINGTON     MOSUNNY   77  57  50 VRB3      30.04F
CHARLESTON     MOSUNNY   78  57  48 NW6       30.04F
PINEVILLE*     MOSUNNY   79  62  56 MISG      30.13F
BECKLEY        SUNNY     76  54  46 VRB5      30.10S
BLUEFIELD      MOSUNNY   77  61  57 W9        30.11F
$$

VAZ002-007-008-TNZ017-027-036-066-071-252100
...SOUTHWEST VIRGINIA/EAST TENNESSEE...

CITY           SKY/WX    TMP DP  RH WIND       PRES   REMARKS
WISE*          CLOUDY    72  59  64 N5        30.12S
JONESVILLE*    CLEAR     81  59  47 CALM      30.07F
ABINGDON*      MOSUNNY   80  59  49 N10       30.07F
BRISTOL        MOSUNNY   83  59  44 W7        30.04F
KNOXVILLE      MOSUNNY   82  63  52 W8        30.03R
OAK RIDGE      SUNNY     84  57  39 VRB3      30.04S
CROSSVILLE     MOSUNNY   78  54  43 W8        30.10R
NASHVILLE      MOSUNNY   85  55  35 CALM      30.03F
$$

...KEY TO REMARKS...
VSB - VISIBILITY IN MILES
WCI - WIND CHILL INDEX
HX  - HEAT INDEX

$$


USA.gov is the U.S. government's official web portal to all federal, state and local government web resources and services.